BMCB-17 Weather Reports


time (UTC)temp
C
wind
direction
speed
KPH
gust
KPH
rain 1hr
cm
rain 24hr
cm
rain mn
cm
humidity
%
barometer
mb
20260505152058 10 0 0.0 0.0 0.00 0.08 0.08 10 1007.9
20260505151057 10 0 0.0 0.0 0.00 0.08 0.08 10 1007.9
20260505140106 10 0 0.0 0.0 0.00 0.10 0.08 10 1008.0
20260505124058 10 0 0.0 0.0 0.00 0.10 0.08 10 1008.5
20260505123057 10 0 0.0 0.0 0.00 0.10 0.08 10 1008.5
20260505122056 10 0 0.0 0.0 0.03 0.10 0.08 10 1008.5
20260505121056 10 0 0.0 0.0 0.03 0.10 0.08 10 1008.5
20260505120057 10 0 0.0 0.0 0.03 0.10 0.08 10 1008.6
20260505115056 10 0 0.0 0.0 0.03 0.10 0.08 10 1008.7
20260505114058 10 0 0.0 0.0 0.03 0.10 0.08 10 1008.7
20260505113057 10 0 0.0 0.0 0.03 0.10 0.08 10 1008.7
20260505112057 10 0 0.0 0.0 0.03 0.10 0.08 10 1008.8
20260505111059 10 0 0.0 0.0 0.00 0.08 0.05 10 1008.9
20260505102056 10 0 0.0 0.0 0.03 0.08 0.05 10 1009.2
20260505101100 10 0 0.0 0.0 0.03 0.08 0.05 10 1009.1
20260505100056 10 0 0.0 0.0 0.03 0.08 0.05 10 1009.1
20260505095056 10 0 0.0 0.0 0.03 0.08 0.05 10 1009.0
20260505094058 10 0 0.0 0.0 0.03 0.08 0.05 10 1009.1
20260505093057 10 0 0.0 0.0 0.03 0.08 0.05 10 1009.1
20260505091057 10 0 0.0 0.0 0.00 0.05 0.05 10 1009.1
20260505090056 10 0 0.0 0.0 0.00 0.05 0.05 10 1009.1
20260505085057 10 0 0.0 0.0 0.00 0.05 0.05 10 1009.1
20260505083057 10 0 0.0 0.0 0.00 0.05 0.05 10 1009.2
20260505082058 10 0 0.0 0.0 0.03 0.05 0.05 10 1009.2
20260505081056 10 0 0.0 0.0 0.03 0.05 0.05 10 1009.3
20260505080057 10 0 0.0 0.0 0.03 0.05 0.05 10 1009.4
20260505075054 10 0 0.0 0.0 0.03 0.05 0.05 10 1009.4
20260505074057 10 0 0.0 0.0 0.03 0.05 0.05 10 1009.3
20260505073057 10 0 0.0 0.0 0.03 0.05 0.05 10 1009.3
20260505072057 10 0 0.0 0.0 0.03 0.05 0.05 10 1009.4
20260505071059 10 0 0.0 0.0 0.00 0.05 0.03 10 1009.5
20260505065058 10 0 0.0 0.0 0.00 0.05 0.03 10 1009.4
20260505063056 10 0 0.0 0.0 0.00 0.05 0.03 10 1009.5
20260505062053 10 0 0.0 0.0 0.00 0.05 0.03 10 1009.5
20260505060058 11 0 0.0 0.0 0.00 0.05 0.03 10 1009.5
20260505055056 11 0 0.0 0.0 0.00 0.05 0.03 10 1009.5
20260505054058 11 0 0.0 0.0 0.00 0.05 0.03 10 1009.4
20260505053056 11 0 0.0 0.0 0.00 0.05 0.03 10 1009.4
20260505052055 11 0 0.0 0.0 0.03 0.05 0.03 10 1009.4
20260505041056 11 0 0.0 0.0 0.00 0.03 0.00 10 1009.5
20260505040056 11 0 0.0 0.0 0.00 0.03 0.00 10 1009.6
20260505035058 11 0 0.0 0.0 0.00 0.03 0.00 10 1009.7
20260505031057 11 0 0.0 0.0 0.00 0.03 0.00 10 1009.9
20260505030056 11 0 0.0 0.0 0.00 0.03 0.00 10 1010.0
20260505025056 11 0 0.0 0.0 0.00 0.03 0.00 10 1010.1
20260505024059 11 0 0.0 0.0 0.00 0.03 0.00 10 1010.1
20260505023059 11 0 0.0 0.0 0.00 0.03 0.00 10 1010.1
20260505022056 11 0 0.0 0.0 0.00 0.03 0.00 10 1010.0
20260505021057 11 0 0.0 0.0 0.00 0.03 0.00 10 1010.0
20260505020059 11 0 0.0 0.0 0.00 0.03 0.00 10 1010.0
20260505015056 11 0 0.0 0.0 0.00 0.03 0.00 10 1010.0
20260505014057 11 0 0.0 0.0 0.00 0.03 0.00 10 1010.0
20260505013054 11 0 0.0 0.0 0.00 0.05 0.00 10 1010.1
20260505012056 11 0 0.0 0.0 0.00 0.05 0.00 10 1010.0
20260505011055 12 0 0.0 0.0 0.00 0.05 0.00 10 1010.1
20260505010057 12 0 0.0 0.0 0.00 0.05 0.00 10 1010.2
20260505005059 12 0 0.0 0.0 0.00 0.05 0.00 10 1010.2
20260505004056 12 0 0.0 0.0 0.00 0.05 0.00 10 1010.2
20260505003058 11 0 0.0 0.0 0.00 0.05 0.00 10 1010.3
20260505002056 11 0 0.0 0.0 0.00 0.05 0.00 10 1010.5
20260505001058 11 0 0.0 0.0 0.00 0.05 0.00 10 1010.7
20260505000100 11 0 0.0 0.0 0.00 0.05 0.00 10 1010.7
20260504235100 11 0 0.0 0.0 0.00 0.05 0.00 10 1010.7
20260504234100 11 0 0.0 0.0 0.00 0.05 0.00 10 1010.8
20260504233101 11 0 0.0 0.0 0.00 0.05 0.00 10 1010.9
20260504232101 11 0 0.0 0.0 0.00 0.05 0.00 10 1010.9
20260504231102 11 0 0.0 0.0 0.00 0.05 0.00 10 1011.1
20260504230059 11 0 0.0 0.0 0.00 0.05 0.00 10 1011.2
20260504225102 11 0 0.0 0.0 0.00 0.05 0.00 10 1011.2
20260504224103 11 0 0.0 0.0 0.00 0.05 0.00 10 1011.2
20260504222104 11 0 0.0 0.0 0.00 0.05 0.00 10 1011.4
20260504215103 11 0 0.0 0.0 0.00 0.05 0.05 10 1011.6
20260504214106 11 0 0.0 0.0 0.00 0.05 0.05 10 1011.6
20260504213104 11 0 0.0 0.0 0.00 0.15 0.05 10 1011.7
20260504210104 11 0 0.0 0.0 0.00 0.30 0.05 10 1011.9
20260504205102 11 0 0.0 0.0 0.00 0.33 0.05 10 1012.0
20260504204103 12 0 0.0 0.0 0.00 0.38 0.05 10 1012.0
20260504203105 12 0 0.0 0.0 0.00 0.43 0.05 10 1012.0
20260504202113 12 0 0.0 0.0 0.00 0.48 0.05 10 1011.8
20260504201109 12 0 0.0 0.0 0.00 0.51 0.05 10 1011.8
20260504200105 12 0 0.0 0.0 0.00 0.51 0.05 10 1011.7
20260504195105 12 0 0.0 0.0 0.00 0.51 0.05 10 1011.7
20260504194102 12 0 0.0 0.0 0.00 0.56 0.05 10 1011.6
20260504192104 12 0 0.0 0.0 0.00 0.71 0.05 10 1011.4
20260504191104 12 0 0.0 0.0 0.00 0.79 0.05 99 1011.4
20260504185105 12 0 0.0 0.0 0.00 0.84 0.05 98 1011.3
20260504184101 13 0 0.0 0.0 0.00 0.84 0.05 97 1011.2
20260504183102 13 0 0.0 0.0 0.00 0.89 0.05 96 1011.2
20260504182100 13 0 0.0 0.0 0.00 0.97 0.05 97 1011.1
20260504181103 13 0 0.0 0.0 0.00 0.99 0.05 97 1011.1
20260504180103 13 0 0.0 0.0 0.00 1.02 0.05 97 1011.2
20260504175101 13 0 0.0 0.0 0.00 1.09 0.05 96 1011.3
20260504174102 13 0 0.0 0.0 0.00 1.09 0.05 95 1011.3
20260504173103 13 0 0.0 0.0 0.00 1.09 0.05 94 1011.3
20260504172102 14 0 0.0 0.0 0.00 1.09 0.05 94 1011.3
20260504171101 14 0 0.0 0.0 0.00 1.09 0.05 93 1011.3